Stations météo

réclame
Mon MeteoGroup
Gioia Del Colle, Italie (16312): Température de l'air & dewpoint: 14.10.2018 19:00:00 - 20.10.2018 19:00:00 (CEST)Gioia Del Colle, Italie (16312): Vitesse du vent: 14.10.2018 19:00:00 - 20.10.2018 19:00:00 (CEST)Gioia Del Colle, Italie (16312): Direction du vent: 14.10.2018 19:00:00 - 20.10.2018 19:00:00 (CEST)Gioia Del Colle, Italie (16312): reduced air pressure: 14.10.2018 19:00:00 - 20.10.2018 19:00:00 (CEST)Gioia Del Colle, Italie (16312): visibility: 14.10.2018 19:00:00 - 20.10.2018 19:00:00 (CEST)
Date & Time tt [°C] td [°C] ff [km/h] ff [knt] dd ppp [hPa] vv [km]
20.10.2018 19:00:00 17,0 14,0 11 6 NNW - 7
20.10.2018 18:00:00 18,0 13,0 15 8 NNW - 10
20.10.2018 17:00:00 19,8 12,8 21 11 N 1018,6 10
20.10.2018 16:00:00 21,0 10,0 21 11 N - 10
20.10.2018 15:00:00 22,0 8,0 22 12 N - 10
20.10.2018 14:00:00 21,4 8,7 24 13 N 1018,9 10
20.10.2018 13:00:00 21,0 9,0 24 13 N - 10
20.10.2018 12:00:00 21,0 9,0 21 11 N - 10
20.10.2018 11:00:00 20,4 9,0 18 10 NNW 1019,1 10
20.10.2018 10:00:00 19,0 10,0 15 8 NNW - 10
20.10.2018 09:00:00 16,0 13,0 8 4 NW - 10
20.10.2018 08:00:00 13,4 11,1 5 3 NW 1018,2 10
20.10.2018 07:00:00 13,0 11,0 5 3 NW - 6
20.10.2018 06:00:00 13,0 11,0 5 3 NW - 4,5
20.10.2018 05:00:00 13,6 10,2 5 3 NNW 1017,8 3,5
20.10.2018 04:00:00 14,0 14,0 8 4 WNW - 3,0
20.10.2018 03:00:00 14,0 14,0 8 4 NNW - 1,0
20.10.2018 02:00:00 15,8 15,8 9 5 NNW 1017,5 0,4
20.10.2018 01:00:00 16,0 16,0 9 5 N - 0,1
20.10.2018 00:00:00 16,0 16,0 5 3 NNW - 0,1
19.10.2018 23:00:00 16,0 16,0 8 4 N 1017,1 0,1
19.10.2018 22:00:00 16,0 16,0 8 4 NW - 0,5
19.10.2018 21:00:00 16,0 16,0 9 5 N - 4,0
19.10.2018 20:00:00 16,6 15,8 9 5 N 1016,8 5
19.10.2018 19:00:00 17,0 15,0 11 6 N - 7
19.10.2018 18:00:00 19,0 15,0 13 7 N - 9
19.10.2018 17:00:00 20,0 13,9 15 8 N 1015,9 10
19.10.2018 16:00:00 21,0 14,0 13 7 N - 10
19.10.2018 15:00:00 21,0 14,0 15 8 N - 10
19.10.2018 14:00:00 21,2 14,4 16 9 N 1015,9 10
19.10.2018 13:00:00 21,0 16,0 16 9 N - 9
19.10.2018 12:00:00 20,0 16,0 11 6 N - 8
19.10.2018 11:00:00 18,2 15,6 11 6 N 1016,2 7
19.10.2018 10:00:00 17,0 17,0 15 8 N - 6
19.10.2018 09:00:00 16,0 16,0 21 11 N - 3,5
19.10.2018 08:00:00 16,0 16,0 13 7 N 1015,4 0,1
19.10.2018 07:00:00 15,0 15,0 8 4 N - 0,1
19.10.2018 06:00:00 15,0 15,0 8 4 N - 0,3
19.10.2018 05:00:00 15,4 15,4 4 2 WNW 1015,3 2,0
19.10.2018 04:00:00 15,0 15,0 8 4 NNE - 2,0
19.10.2018 03:00:00 15,0 15,0 4 2 - - 0,6
19.10.2018 02:00:00 15,0 15,0 5 3 N 1015,3 0,2
19.10.2018 01:00:00 15,0 15,0 4 2 SW - 0,2
19.10.2018 00:00:00 15,0 15,0 4 2 NW - 0,2
18.10.2018 23:00:00 15,2 15,2 4 2 W 1015,0 3,5
18.10.2018 22:00:00 16,0 16,0 5 3 N - 5
18.10.2018 21:00:00 17,0 17,0 5 3 N - 6
18.10.2018 20:00:00 17,4 15,7 8 4 NNE 1014,8 10
18.10.2018 19:00:00 18,0 16,0 9 5 NNE - 10
18.10.2018 18:00:00 20,0 18,0 11 6 N - 10
18.10.2018 17:00:00 21,0 17,4 15 8 NNE 1013,0 10
18.10.2018 16:00:00 22,0 17,0 16 9 NE - 10
18.10.2018 15:00:00 24,0 9,0 5 3 - - 10
18.10.2018 14:00:00 23,6 9,6 11 6 SSE 1013,5 10
18.10.2018 13:00:00 22,0 14,0 2 1 - - 10
18.10.2018 12:00:00 21,0 17,0 8 4 ENE - 10
18.10.2018 11:00:00 17,6 17,3 8 4 NNE 1015,9 6
18.10.2018 10:00:00 16,0 16,0 8 4 NNE - 1,5
18.10.2018 09:00:00 16,0 16,0 9 5 N - 0,1
18.10.2018 08:00:00 14,0 14,0 5 3 N 1015,5 0,1
18.10.2018 07:00:00 13,0 13,0 2 1 - - 0,3
18.10.2018 06:00:00 13,0 13,0 4 2 E - 0,1
18.10.2018 05:00:00 12,8 12,8 4 2 N 1015,7 0,2
18.10.2018 04:00:00 13,0 13,0 4 2 N - 0,3
18.10.2018 03:00:00 14,0 14,0 2 1 E - 0,3
18.10.2018 02:00:00 14,0 14,0 0 0 N 1016,4 0,2
18.10.2018 01:00:00 15,0 15,0 2 1 W - 0,2
18.10.2018 00:00:00 15,0 15,0 2 1 W - 0,2
17.10.2018 23:00:00 15,0 15,0 4 2 WSW 1016,6 0,2
17.10.2018 22:00:00 17,0 17,0 4 2 ESE - 8
17.10.2018 21:00:00 18,0 17,0 5 3 SSE - 8
17.10.2018 20:00:00 18,0 17,2 4 2 ESE 1015,3 10
17.10.2018 19:00:00 19,0 18,0 8 4 S - 10
17.10.2018 18:00:00 20,0 18,0 8 4 S - 10
17.10.2018 17:00:00 21,0 17,4 15 8 SSE 1015,1 10
17.10.2018 16:00:00 22,0 17,0 15 8 SSE - 10
17.10.2018 15:00:00 23,0 16,0 13 7 S - 10
17.10.2018 14:00:00 22,8 14,6 13 7 SE 1016,0 10
17.10.2018 13:00:00 23,0 14,0 11 6 SSE - 10
17.10.2018 12:00:00 22,0 13,0 16 9 SSE - 10
17.10.2018 11:00:00 21,6 13,5 16 9 SSE 1017,1 10
17.10.2018 10:00:00 20,0 16,0 11 6 SE - 10
17.10.2018 09:00:00 18,0 18,0 9 5 ESE - 8
17.10.2018 08:00:00 16,4 16,1 4 2 N 1017,9 6
17.10.2018 07:00:00 16,0 16,0 9 5 SSE - 3,5
17.10.2018 06:00:00 15,0 15,0 4 2 - - 1,8
17.10.2018 05:00:00 16,2 16,2 2 1 - 1018,0 1,6
17.10.2018 04:00:00 17,0 17,0 9 5 ESE - 2,6
17.10.2018 03:00:00 17,0 17,0 5 3 SSE - 2,0
17.10.2018 02:00:00 16,8 16,8 4 2 SE 1018,9 2,2
17.10.2018 01:00:00 17,0 17,0 8 4 SSE - 2,5
17.10.2018 00:00:00 17,0 17,0 2 1 - - 2,5
16.10.2018 23:00:00 17,2 17,2 4 2 N 1019,4 2,8
16.10.2018 22:00:00 18,0 18,0 4 2 E - 3,5
16.10.2018 21:00:00 18,0 18,0 11 6 SE - 3,2
16.10.2018 20:00:00 18,0 18,0 2 1 S 1019,2 6
16.10.2018 19:00:00 18,0 18,0 9 5 SSE - 6
16.10.2018 18:00:00 19,0 18,0 11 6 SSE - 7
16.10.2018 17:00:00 20,4 17,8 16 9 S 1018,4 7
16.10.2018 16:00:00 20,0 17,0 18 10 S - 7
16.10.2018 15:00:00 21,0 16,0 18 10 SSE - 6
16.10.2018 14:00:00 20,4 16,8 18 10 SSE 1018,9 7
16.10.2018 13:00:00 21,0 20,0 15 8 SSE - 6
16.10.2018 12:00:00 20,0 17,0 21 11 S - 7
16.10.2018 11:00:00 20,2 18,5 24 13 SE 1019,0 7
16.10.2018 10:00:00 19,0 17,0 22 12 SSE - 6
16.10.2018 09:00:00 19,0 19,0 18 10 ESE - 6
16.10.2018 08:00:00 17,0 17,0 13 7 ESE 1018,2 6
16.10.2018 07:00:00 17,0 17,0 13 7 SE - 6
16.10.2018 06:00:00 17,0 17,0 18 10 SE - 3,5
16.10.2018 05:00:00 17,0 17,0 18 10 SE 1018,0 4,0
16.10.2018 04:00:00 17,0 17,0 15 8 SE - 6
16.10.2018 03:00:00 17,0 17,0 15 8 SE - 6
16.10.2018 02:00:00 17,0 17,0 9 5 SSE 1018,6 5
16.10.2018 01:00:00 16,0 16,0 8 4 SE - 5
16.10.2018 00:00:00 16,0 16,0 2 1 - - 5
15.10.2018 23:00:00 16,0 16,0 4 2 N 1018,5 7
15.10.2018 22:00:00 16,0 16,0 4 2 E - 7
15.10.2018 21:00:00 16,0 16,0 5 3 NE - 8
15.10.2018 20:00:00 17,0 16,5 2 1 N 1017,7 9
15.10.2018 19:00:00 18,0 18,0 2 1 - - 9
15.10.2018 18:00:00 19,0 17,0 8 4 S - 9
15.10.2018 17:00:00 19,6 16,8 16 9 ESE 1016,8 9
15.10.2018 16:00:00 20,0 16,0 16 9 SSE - 10
15.10.2018 15:00:00 21,0 13,0 18 10 ESE - 10
15.10.2018 14:00:00 22,2 12,2 21 11 SE 1016,9 10
15.10.2018 13:00:00 22,0 12,0 21 11 SE - 10
15.10.2018 12:00:00 22,0 12,0 22 12 ESE - 10
15.10.2018 11:00:00 20,0 12,0 22 12 SE 1017,6 10
15.10.2018 10:00:00 19,0 14,0 22 12 ESE - 10
15.10.2018 09:00:00 18,0 15,0 15 8 ESE - 10
15.10.2018 08:00:00 16,2 14,6 11 6 E 1016,6 8
15.10.2018 07:00:00 16,0 15,0 13 7 E - 7
15.10.2018 06:00:00 16,0 15,0 15 8 E - 6
15.10.2018 05:00:00 16,2 14,9 11 6 E 1017,0 6
15.10.2018 04:00:00 16,0 15,0 16 9 ESE - 6
15.10.2018 03:00:00 15,0 15,0 2 1 - - 6
15.10.2018 02:00:00 15,0 14,5 9 5 E 1017,6 6
15.10.2018 01:00:00 14,0 14,0 9 5 E - 4,0
15.10.2018 00:00:00 14,0 13,0 9 5 E - 4,0
14.10.2018 23:00:00 13,8 13,3 4 2 N 1018,1 5
14.10.2018 22:00:00 14,0 14,0 2 1 N - 5
14.10.2018 21:00:00 15,0 14,0 4 2 NNE - 6
14.10.2018 20:00:00 15,8 14,2 4 2 NE 1018,1 6
14.10.2018 19:00:00 17,0 15,0 9 5 SSE - 5

tt = Température de l'air
td = dewpoint
ff = Vitesse du vent
dd = Direction du vent
ppp = reduced air pressure
vv = visibility

stations d'obs. à proximité